Time,TemperatureF,DewpointF,PressureIn,WindDirection,WindDirectionDegrees,WindSpeedMPH,WindSpeedGustMPH,Humidity,HourlyPrecipIn,Conditions,Clouds,dailyrainin,SoftwareType,DateUTC
2013-03-05 00:01:00,44.3,22.1,29.99,SSW,194,0.0,0.0,41,0.00,,,0.00,Wunderground v.1.13,2013-03-05 05:01:00,
2013-03-05 00:11:00,44.1,21.9,29.99,SSW,194,0.0,0.0,41,0.00,,,0.00,Wunderground v.1.13,2013-03-05 05:11:00,
2013-03-05 00:21:00,44.3,22.6,29.98,SSW,194,0.0,0.0,42,0.00,,,0.00,Wunderground v.1.13,2013-03-05 05:21:00,
2013-03-05 00:30:00,44.2,21.4,29.98,SSW,194,0.0,0.0,40,0.00,,,0.00,Wunderground v.1.13,2013-03-05 05:30:00,
2013-03-05 00:41:00,44.5,21.0,29.99,SSW,194,0.0,0.0,39,0.00,,,0.00,Wunderground v.1.13,2013-03-05 05:41:00,
2013-03-05 00:51:00,44.3,22.6,29.99,SSW,194,0.0,0.0,42,0.00,,,0.00,Wunderground v.1.13,2013-03-05 05:51:00,
2013-03-05 01:00:00,43.3,25.9,29.99,SSW,194,0.0,0.0,50,0.00,,,0.00,Wunderground v.1.13,2013-03-05 06:00:00,
2013-03-05 01:11:00,42.3,25.9,29.99,SSW,194,0.0,0.0,52,0.00,,,0.00,Wunderground v.1.13,2013-03-05 06:11:00,
2013-03-05 01:21:00,41.3,24.5,30.00,SSW,194,0.0,0.0,51,0.00,,,0.00,Wunderground v.1.13,2013-03-05 06:21:00,
2013-03-05 01:30:00,40.9,25.5,30.00,SSW,194,0.0,0.0,54,0.00,,,0.00,Wunderground v.1.13,2013-03-05 06:30:00,
2013-03-05 01:41:00,40.6,23.4,30.00,SSW,194,0.0,0.0,50,0.00,,,0.00,Wunderground v.1.13,2013-03-05 06:41:00,
2013-03-05 01:51:00,40.5,21.3,30.00,SSW,194,0.0,0.0,46,0.00,,,0.00,Wunderground v.1.13,2013-03-05 06:51:00,
2013-03-05 02:01:00,40.9,21.7,30.00,SSW,194,0.0,0.0,46,0.00,,,0.00,Wunderground v.1.13,2013-03-05 07:01:00,
2013-03-05 02:11:00,41.8,22.0,30.00,SSW,194,0.0,0.0,45,0.00,,,0.00,Wunderground v.1.13,2013-03-05 07:11:00,
2013-03-05 02:21:00,42.1,22.3,30.00,SSW,194,0.0,0.0,45,0.00,,,0.00,Wunderground v.1.13,2013-03-05 07:21:00,
2013-03-05 02:30:00,42.3,21.9,30.00,SSW,194,0.0,0.0,44,0.00,,,0.00,Wunderground v.1.13,2013-03-05 07:30:00,
2013-03-05 02:40:00,42.8,21.8,29.98,SSW,194,0.0,0.0,43,0.00,,,0.00,Wunderground v.1.13,2013-03-05 07:40:00,
2013-03-05 02:50:00,43.1,22.1,29.98,SSW,194,0.0,0.0,43,0.00,,,0.00,Wunderground v.1.13,2013-03-05 07:50:00,
2013-03-05 03:01:00,42.9,21.9,29.98,SSW,194,0.0,0.0,43,0.00,,,0.00,Wunderground v.1.13,2013-03-05 08:01:00,
2013-03-05 03:10:00,43.3,22.3,29.98,SSW,194,0.0,0.0,43,0.00,,,0.00,Wunderground v.1.13,2013-03-05 08:10:00,
2013-03-05 03:21:00,43.8,22.7,29.97,SSW,194,0.0,0.0,43,0.00,,,0.00,Wunderground v.1.13,2013-03-05 08:21:00,
2013-03-05 03:31:00,43.6,23.6,29.97,SSW,194,0.0,1.0,45,0.00,,,0.00,Wunderground v.1.13,2013-03-05 08:31:00,
2013-03-05 03:40:00,43.5,24.1,29.97,SSW,194,1.0,1.0,46,0.00,,,0.00,Wunderground v.1.13,2013-03-05 08:40:00,
2013-03-05 03:50:00,43.2,24.3,29.96,South,169,0.0,0.0,47,0.00,,,0.00,Wunderground v.1.13,2013-03-05 08:50:00,
2013-03-05 04:01:00,43.1,24.2,29.96,SSW,194,1.0,1.0,47,0.00,,,0.00,Wunderground v.1.13,2013-03-05 09:01:00,
2013-03-05 04:20:00,42.8,24.9,29.96,SSW,203,0.0,4.0,49,0.00,,,0.00,Wunderground v.1.13,2013-03-05 09:20:00,
2013-03-05 04:31:00,42.6,26.2,29.95,SSW,194,0.0,1.0,52,0.00,,,0.00,Wunderground v.1.13,2013-03-05 09:31:00,
2013-03-05 04:40:00,42.9,26.5,29.95,SSW,194,0.0,0.0,52,0.00,,,0.00,Wunderground v.1.13,2013-03-05 09:40:00,
2013-03-05 04:50:00,42.9,26.5,29.95,SSW,203,0.0,1.0,52,0.00,,,0.00,Wunderground v.1.13,2013-03-05 09:50:00,
2013-03-05 05:01:00,42.8,26.4,29.95,SSE,163,0.0,0.0,52,0.00,,,0.00,Wunderground v.1.13,2013-03-05 10:01:00,
2013-03-05 05:11:00,42.1,27.5,29.95,South,178,0.0,0.0,56,0.00,,,0.00,Wunderground v.1.13,2013-03-05 10:11:00,
2013-03-05 05:21:00,41.5,26.5,29.95,South,178,0.0,0.0,55,0.00,,,0.00,Wunderground v.1.13,2013-03-05 10:21:00,
2013-03-05 05:31:00,41.8,26.8,29.95,South,178,0.0,0.0,55,0.00,,,0.00,Wunderground v.1.13,2013-03-05 10:31:00,
2013-03-05 05:40:00,41.9,26.9,29.95,South,178,0.0,0.0,55,0.00,,,0.00,Wunderground v.1.13,2013-03-05 10:40:00,
2013-03-05 05:50:00,42.2,27.2,29.95,South,181,0.0,0.0,55,0.00,,,0.00,Wunderground v.1.13,2013-03-05 10:50:00,
2013-03-05 06:01:00,42.3,27.3,29.95,South,189,2.0,2.0,55,0.00,,,0.00,Wunderground v.1.13,2013-03-05 11:01:00,
2013-03-05 06:10:00,42.3,27.7,29.95,South,190,2.0,2.0,56,0.00,,,0.00,Wunderground v.1.13,2013-03-05 11:10:00,
2013-03-05 06:20:00,42.3,28.1,29.95,SSW,203,2.0,7.0,57,0.00,,,0.00,Wunderground v.1.13,2013-03-05 11:20:00,
2013-03-05 06:31:00,42.2,28.0,29.94,South,187,2.0,2.0,57,0.00,,,0.00,Wunderground v.1.13,2013-03-05 11:31:00,
2013-03-05 06:40:00,42.2,28.0,29.94,South,178,1.0,1.0,57,0.00,,,0.00,Wunderground v.1.13,2013-03-05 11:40:00,
2013-03-05 06:51:00,42.1,28.8,29.94,SSE,164,0.0,0.0,59,0.00,,,0.00,Wunderground v.1.13,2013-03-05 11:51:00,
2013-03-05 07:01:00,42.1,28.8,29.95,SSE,164,0.0,0.0,59,0.00,,,0.00,Wunderground v.1.13,2013-03-05 12:01:00,
2013-03-05 07:11:00,42.2,28.9,29.95,N/A,-737280,0.0,0.0,59,0.00,,,0.00,Wunderground v.1.13,2013-03-05 12:11:00,
2013-03-05 07:21:00,42.2,29.3,29.94,SSE,164,0.0,0.0,60,0.00,,,0.00,Wunderground v.1.13,2013-03-05 12:21:00,
2013-03-05 07:31:00,42.3,29.4,29.94,SSE,164,0.0,0.0,60,0.00,,,0.00,Wunderground v.1.13,2013-03-05 12:31:00,
2013-03-05 07:40:00,42.5,29.6,29.93,South,188,1.0,1.0,60,0.00,,,0.00,Wunderground v.1.13,2013-03-05 12:40:00,
2013-03-05 07:50:00,42.6,29.7,29.93,N/A,-737280,0.0,0.0,60,0.00,,,0.00,Wunderground v.1.13,2013-03-05 12:50:00,
2013-03-05 08:01:00,42.6,30.1,29.93,South,188,0.0,0.0,61,0.00,,,0.00,Wunderground v.1.13,2013-03-05 13:01:00,
2013-03-05 08:11:00,42.9,30.8,29.93,South,188,0.0,0.0,62,0.00,,,0.00,Wunderground v.1.13,2013-03-05 13:11:00,
2013-03-05 08:31:00,43.5,31.3,29.93,South,180,1.0,5.0,62,0.00,,,0.00,Wunderground v.1.13,2013-03-05 13:31:00,
2013-03-05 08:40:00,44.1,32.7,29.93,South,190,1.0,1.0,64,0.00,,,0.00,Wunderground v.1.13,2013-03-05 13:40:00,
2013-03-05 08:50:00,44.3,33.7,29.93,South,190,0.0,1.0,66,0.00,,,0.00,Wunderground v.1.13,2013-03-05 13:50:00,
2013-03-05 09:01:00,44.8,34.5,29.93,South,189,1.0,2.0,67,0.00,,,0.00,Wunderground v.1.13,2013-03-05 14:01:00,
2013-03-05 09:10:00,44.9,34.2,29.93,South,189,1.0,1.0,66,0.00,,,0.00,Wunderground v.1.13,2013-03-05 14:10:00,
2013-03-05 09:20:00,45.2,34.9,29.92,SSW,203,1.0,3.0,67,0.00,,,0.00,Wunderground v.1.13,2013-03-05 14:20:00,
2013-03-05 09:31:00,44.8,35.2,29.92,South,186,1.0,1.0,69,0.00,,,0.00,Wunderground v.1.13,2013-03-05 14:31:00,
2013-03-05 09:40:00,44.6,35.4,29.92,SSW,213,1.0,1.0,70,0.00,,,0.00,Wunderground v.1.13,2013-03-05 14:40:00,
2013-03-05 09:51:00,44.8,36.0,29.91,SSW,212,0.0,0.0,71,0.00,,,0.00,Wunderground v.1.13,2013-03-05 14:51:00,
2013-03-05 10:01:00,44.8,36.0,29.91,South,191,2.0,2.0,71,0.00,,,0.00,Wunderground v.1.13,2013-03-05 15:01:00,
2013-03-05 10:11:00,44.6,36.8,29.91,SSW,192,2.0,2.0,74,0.00,,,0.00,Wunderground v.1.13,2013-03-05 15:11:00,
2013-03-05 10:21:00,44.6,37.5,29.91,SSW,192,0.0,0.0,76,0.00,,,0.00,Wunderground v.1.13,2013-03-05 15:21:00,
2013-03-05 10:31:00,44.6,38.5,29.91,SSW,192,0.0,0.0,79,0.00,,,0.00,Wunderground v.1.13,2013-03-05 15:31:00,
2013-03-05 10:40:00,44.8,39.3,29.91,SSW,192,0.0,0.0,81,0.00,,,0.01,Wunderground v.1.13,2013-03-05 15:40:00,
2013-03-05 10:51:00,44.6,40.4,29.90,SSW,192,0.0,0.0,85,0.00,,,0.01,Wunderground v.1.13,2013-03-05 15:51:00,
2013-03-05 11:01:00,44.6,40.7,29.90,SSW,192,0.0,0.0,86,0.00,,,0.01,Wunderground v.1.13,2013-03-05 16:01:00,
2013-03-05 11:11:00,44.9,41.3,29.90,SSW,192,0.0,0.0,87,0.00,,,0.01,Wunderground v.1.13,2013-03-05 16:11:00,
2013-03-05 11:21:00,45.1,41.5,29.89,SSW,192,0.0,0.0,87,0.00,,,0.01,Wunderground v.1.13,2013-03-05 16:21:00,
2013-03-05 11:31:00,45.1,41.2,29.89,SSW,192,0.0,0.0,86,0.00,,,0.02,Wunderground v.1.13,2013-03-05 16:31:00,
2013-03-05 11:40:00,45.2,41.6,29.89,SSW,192,0.0,2.0,87,0.00,,,0.02,Wunderground v.1.13,2013-03-05 16:40:00,
2013-03-05 11:51:00,45.2,41.6,29.88,SSW,192,0.0,0.0,87,0.00,,,0.02,Wunderground v.1.13,2013-03-05 16:51:00,
2013-03-05 12:01:00,45.8,42.2,29.86,SSW,192,0.0,0.0,87,0.00,,,0.02,Wunderground v.1.13,2013-03-05 17:01:00,
2013-03-05 12:11:00,47.0,43.3,29.86,SSW,192,0.0,0.0,87,0.00,,,0.02,Wunderground v.1.13,2013-03-05 17:11:00,
2013-03-05 12:21:00,47.7,43.7,29.85,SSW,192,1.0,1.0,86,0.00,,,0.02,Wunderground v.1.13,2013-03-05 17:21:00,
2013-03-05 12:31:00,47.6,43.9,29.85,NNE,24,2.0,6.0,87,0.00,,,0.02,Wunderground v.1.13,2013-03-05 17:31:00,
2013-03-05 12:40:00,46.7,42.7,29.84,NNE,26,4.0,4.0,86,0.00,,,0.02,Wunderground v.1.13,2013-03-05 17:40:00,
2013-03-05 12:50:00,47.0,43.0,29.83,North,0,3.0,6.0,86,0.00,,,0.02,Wunderground v.1.13,2013-03-05 17:50:00,
2013-03-05 13:01:00,47.3,42.7,29.83,NNE,25,2.0,2.0,84,0.00,,,0.02,Wunderground v.1.13,2013-03-05 18:01:00,
2013-03-05 13:11:00,47.4,42.5,29.83,NNE,25,1.0,1.0,83,0.00,,,0.02,Wunderground v.1.13,2013-03-05 18:11:00,
2013-03-05 13:21:00,48.2,43.0,29.82,North,355,1.0,2.0,82,0.00,,,0.02,Wunderground v.1.13,2013-03-05 18:21:00,
2013-03-05 13:31:00,48.6,43.4,29.81,NE,38,2.0,3.0,82,0.00,,,0.02,Wunderground v.1.13,2013-03-05 18:31:00,
2013-03-05 13:40:00,48.8,43.2,29.81,NNE,14,3.0,3.0,81,0.00,,,0.02,Wunderground v.1.13,2013-03-05 18:40:00,
2013-03-05 13:50:00,49.1,43.5,29.80,NNW,338,1.0,3.0,81,0.00,,,0.02,Wunderground v.1.13,2013-03-05 18:50:00,
2013-03-05 14:01:00,49.9,44.0,29.78,NNW,348,2.0,2.0,80,0.00,,,0.02,Wunderground v.1.13,2013-03-05 19:01:00,
2013-03-05 14:11:00,50.5,43.6,29.78,NNE,31,2.0,4.0,77,0.00,,,0.02,Wunderground v.1.13,2013-03-05 19:11:00,
2013-03-05 14:21:00,50.8,43.8,29.77,NNE,31,0.0,0.0,77,0.00,,,0.02,Wunderground v.1.13,2013-03-05 19:21:00,
2013-03-05 14:30:00,51.0,44.0,29.77,NNE,27,1.0,2.0,77,0.00,,,0.02,Wunderground v.1.13,2013-03-05 19:30:00,
2013-03-05 14:40:00,51.1,44.1,29.76,NNE,26,2.0,2.0,77,0.00,,,0.02,Wunderground v.1.13,2013-03-05 19:40:00,
2013-03-05 14:51:00,51.1,44.1,29.76,NNE,26,1.0,1.0,77,0.00,,,0.02,Wunderground v.1.13,2013-03-05 19:51:00,
2013-03-05 15:01:00,51.1,44.1,29.76,NNE,26,2.0,2.0,77,0.00,,,0.02,Wunderground v.1.13,2013-03-05 20:01:00,
2013-03-05 15:11:00,51.0,44.4,29.76,NNE,13,3.0,4.0,78,0.00,,,0.02,Wunderground v.1.13,2013-03-05 20:11:00,
2013-03-05 15:21:00,50.7,44.1,29.75,NNE,13,3.0,3.0,78,0.00,,,0.02,Wunderground v.1.13,2013-03-05 20:21:00,
2013-03-05 15:30:00,51.0,44.4,29.75,East,101,2.0,3.0,78,0.00,,,0.02,Wunderground v.1.13,2013-03-05 20:30:00,
2013-03-05 15:40:00,51.9,45.3,29.72,NNE,30,3.0,10.0,78,0.00,,,0.02,Wunderground v.1.13,2013-03-05 20:40:00,
2013-03-05 15:51:00,51.4,43.7,29.70,ENE,63,5.0,5.0,75,0.00,,,0.02,Wunderground v.1.13,2013-03-05 20:51:00,
2013-03-05 16:01:00,51.7,44.0,29.70,NNE,29,4.0,5.0,75,0.00,,,0.02,Wunderground v.1.13,2013-03-05 21:01:00,
2013-03-05 16:10:00,51.9,43.9,29.69,NE,45,5.0,8.0,74,0.00,,,0.02,Wunderground v.1.13,2013-03-05 21:10:00,
2013-03-05 16:21:00,51.7,43.7,29.68,NE,42,4.0,4.0,74,0.00,,,0.02,Wunderground v.1.13,2013-03-05 21:21:00,
2013-03-05 16:30:00,51.6,43.9,29.68,NNE,15,3.0,3.0,75,0.00,,,0.02,Wunderground v.1.13,2013-03-05 21:30:00,
2013-03-05 16:40:00,51.4,44.1,29.68,NNE,21,3.0,4.0,76,0.00,,,0.02,Wunderground v.1.13,2013-03-05 21:40:00,
2013-03-05 16:50:00,51.0,43.7,29.67,NNE,23,3.0,6.0,76,0.00,,,0.02,Wunderground v.1.13,2013-03-05 21:50:00,
2013-03-05 17:01:00,50.7,44.1,29.65,NNE,32,3.0,5.0,78,0.00,,,0.02,Wunderground v.1.13,2013-03-05 22:01:00,
2013-03-05 17:11:00,50.4,43.8,29.65,NNE,24,5.0,5.0,78,0.00,,,0.02,Wunderground v.1.13,2013-03-05 22:11:00,
2013-03-05 17:21:00,50.1,43.5,29.63,NNE,32,5.0,8.0,78,0.00,,,0.02,Wunderground v.1.13,2013-03-05 22:21:00,
2013-03-05 17:30:00,50.2,43.9,29.63,NE,36,4.0,5.0,79,0.00,,,0.02,Wunderground v.1.13,2013-03-05 22:30:00,
2013-03-05 17:40:00,50.1,43.8,29.62,NE,46,4.0,4.0,79,0.00,,,0.02,Wunderground v.1.13,2013-03-05 22:40:00,
2013-03-05 17:51:00,49.9,43.6,29.59,NE,42,4.0,4.0,79,0.00,,,0.02,Wunderground v.1.13,2013-03-05 22:51:00,
2013-03-05 18:01:00,49.8,43.9,29.59,NNE,30,3.0,5.0,80,0.00,,,0.02,Wunderground v.1.13,2013-03-05 23:01:00,
2013-03-05 18:11:00,49.4,44.5,29.59,East,84,1.0,1.0,83,0.13,,,0.03,Wunderground v.1.13,2013-03-05 23:11:00,
2013-03-05 18:21:00,48.8,45.1,29.59,East,84,0.0,1.0,87,0.19,,,0.07,Wunderground v.1.13,2013-03-05 23:21:00,
2013-03-05 18:31:00,48.0,44.6,29.59,NE,39,2.0,2.0,88,0.09,,,0.09,Wunderground v.1.13,2013-03-05 23:31:00,
2013-03-05 18:41:00,47.7,44.9,29.59,NNW,328,3.0,3.0,90,0.12,,,0.11,Wunderground v.1.13,2013-03-05 23:41:00,
2013-03-05 18:50:00,47.4,44.9,29.57,NNW,335,3.0,3.0,91,0.13,,,0.14,Wunderground v.1.13,2013-03-05 23:50:00,
2013-03-05 19:00:00,47.1,44.9,29.59,NNW,338,7.0,12.0,92,0.14,,,0.21,Wunderground v.1.13,2013-03-06 00:00:00,
2013-03-05 19:11:00,46.7,44.5,29.59,NNW,327,9.0,15.0,92,0.69,,,0.25,Wunderground v.1.13,2013-03-06 00:11:00,
2013-03-05 19:31:00,46.2,44.3,29.62,NW,315,10.0,17.0,93,0.26,,,0.36,Wunderground v.1.13,2013-03-06 00:31:00,
2013-03-05 19:41:00,44.8,42.9,29.61,NE,44,7.0,7.0,93,0.15,,,0.48,Wunderground v.1.13,2013-03-06 00:41:00,
2013-03-05 19:50:00,44.6,43.0,29.55,ENE,78,5.0,5.0,94,0.04,,,0.48,Wunderground v.1.13,2013-03-06 00:50:00,
2013-03-05 20:00:00,44.6,43.0,29.57,NE,45,1.0,4.0,94,0.32,,,0.48,Wunderground v.1.13,2013-03-06 01:00:00,
2013-03-05 20:10:00,44.5,42.9,29.57,NW,315,3.0,7.0,94,0.22,,,0.48,Wunderground v.1.13,2013-03-06 01:10:00,
2013-03-05 20:21:00,44.5,42.9,29.59,NW,316,3.0,5.0,94,0.00,,,0.48,Wunderground v.1.13,2013-03-06 01:21:00,
2013-03-05 20:30:00,44.3,43.0,29.59,NNW,344,4.0,4.0,95,0.00,,,0.48,Wunderground v.1.13,2013-03-06 01:30:00,
2013-03-05 20:41:00,44.3,43.0,29.59,NE,34,4.0,7.0,95,0.00,,,0.48,Wunderground v.1.13,2013-03-06 01:41:00,
2013-03-05 20:50:00,44.3,43.0,29.58,NNW,334,4.0,4.0,95,0.00,,,0.48,Wunderground v.1.13,2013-03-06 01:50:00,
2013-03-05 21:01:00,44.2,42.9,29.58,NNW,340,3.0,3.0,95,0.00,,,0.48,Wunderground v.1.13,2013-03-06 02:01:00,
2013-03-05 21:21:00,44.1,42.8,29.58,North,0,2.0,5.0,95,0.00,,,0.48,Wunderground v.1.13,2013-03-06 02:21:00,
2013-03-05 21:30:00,43.8,42.5,29.57,North,355,3.0,3.0,95,0.00,,,0.48,Wunderground v.1.13,2013-03-06 02:30:00,
2013-03-05 21:41:00,43.8,42.5,29.57,North,355,0.0,0.0,95,0.00,,,0.48,Wunderground v.1.13,2013-03-06 02:41:00,
2013-03-05 21:50:00,43.8,42.5,29.57,North,355,0.0,0.0,95,0.00,,,0.48,Wunderground v.1.13,2013-03-06 02:50:00,
2013-03-05 22:00:00,43.5,42.2,29.56,N/A,-737280,0.0,0.0,95,0.00,,,0.48,Wunderground v.1.13,2013-03-06 03:00:00,
2013-03-05 22:11:00,43.2,41.9,29.56,North,355,0.0,0.0,95,0.00,,,0.48,Wunderground v.1.13,2013-03-06 03:11:00,
2013-03-05 22:21:00,42.9,41.6,29.56,N/A,-737280,0.0,0.0,95,0.00,,,0.48,Wunderground v.1.13,2013-03-06 03:21:00,
2013-03-05 22:31:00,42.8,41.5,29.56,North,355,0.0,0.0,95,0.00,,,0.48,Wunderground v.1.13,2013-03-06 03:31:00,
2013-03-05 22:41:00,42.8,41.7,29.56,North,355,0.0,0.0,96,0.00,,,0.48,Wunderground v.1.13,2013-03-06 03:41:00,
2013-03-05 22:50:00,42.9,41.8,29.57,North,355,0.0,0.0,96,0.00,,,0.48,Wunderground v.1.13,2013-03-06 03:50:00,
2013-03-05 23:01:00,43.1,42.0,29.56,NNW,336,1.0,2.0,96,0.00,,,0.48,Wunderground v.1.13,2013-03-06 04:01:00,
2013-03-05 23:10:00,43.2,42.1,29.56,NNW,336,2.0,2.0,96,0.00,,,0.48,Wunderground v.1.13,2013-03-06 04:10:00,
2013-03-05 23:20:00,43.2,42.1,29.56,NNW,327,2.0,4.0,96,0.00,,,0.48,Wunderground v.1.13,2013-03-06 04:20:00,
2013-03-05 23:30:00,43.3,42.2,29.56,NW,322,3.0,4.0,96,0.00,,,0.48,Wunderground v.1.13,2013-03-06 04:30:00,
2013-03-05 23:40:00,43.2,42.1,29.57,NW,315,0.0,3.0,96,0.00,,,0.48,Wunderground v.1.13,2013-03-06 04:40:00,
2013-03-05 23:51:00,43.1,42.0,29.57,NW,322,0.0,0.0,96,0.00,,,0.48,Wunderground v.1.13,2013-03-06 04:51:00,